This is the latest recevied weather packets stored in our database for station/object DO9LL-1. If no packets are shown the sender has not sent any weather packets the latest 1 day(s).
| Time | Temp. | Humidity | Pressure | Rain* | Wind** | Luminosity | Snow |
|---|---|---|---|---|---|---|---|
| 1778053344 | 7.22° C | 97% | 1005.9 hPa | 1.27 mm | - | - | - |
| 1778052741 | 7.78° C | 97% | 1005.9 hPa | 1.27 mm | - | - | - |
| 1778052138 | 7.78° C | 97% | 1005.8 hPa | 1.27 mm | - | - | - |
| 1778051555 | 7.78° C | 97% | 1005.8 hPa | 1.27 mm | - | - | - |
| 1778050952 | 7.78° C | 97% | 1005.8 hPa | 1.27 mm | - | - | - |
| 1778049142 | 7.78° C | 97% | 1005.6 hPa | 1.27 mm | - | - | - |
| 1778048538 | 7.78° C | 97% | 1005.4 hPa | 1.52 mm | - | - | - |
| 1778047955 | 8.33° C | 97% | 1005.3 hPa | 1.78 mm | - | - | - |
| 1778046748 | 8.33° C | 97% | 1005.3 hPa | 2.54 mm | - | - | - |
| 1778045541 | 8.33° C | 97% | 1005.3 hPa | 2.79 mm | - | - | - |
| 1778044938 | 8.33° C | 97% | 1005.3 hPa | 2.79 mm | - | - | - |
| 1778043750 | 8.89° C | 97% | 1005.2 hPa | 2.79 mm | - | - | - |
| 1778043147 | 8.89° C | 98% | 1005.2 hPa | 2.54 mm | - | - | - |
| 1778042543 | 8.89° C | 98% | 1005.2 hPa | 2.54 mm | - | - | - |
| 1778041940 | 8.89° C | 98% | 1005.2 hPa | 2.54 mm | - | - | - |
| 1778041337 | 8.89° C | 97% | 1005.2 hPa | 2.29 mm | - | - | - |
| 1778040754 | 8.89° C | 97% | 1005.3 hPa | 2.29 mm | - | - | - |
| 1778039547 | 8.89° C | 97% | 1005.2 hPa | 2.29 mm | - | - | - |
| 1778038944 | 8.89° C | 97% | 1005.3 hPa | 2.03 mm | - | - | - |
| 1778037738 | 8.89° C | 97% | 1005.4 hPa | 2.29 mm | - | - | - |
| 1778037155 | 8.89° C | 97% | 1005.4 hPa | 2.03 mm | - | - | - |
| 1778036551 | 8.89° C | 97% | 1005.6 hPa | 2.29 mm | - | - | - |
| 1778035953 | 8.89° C | 97% | 1005.7 hPa | 2.29 mm | - | - | - |
| 1778035345 | 9.44° C | 97% | 1005.7 hPa | 2.29 mm | - | - | - |
| 1778034743 | 9.44° C | 97% | 1005.8 hPa | 2.29 mm | - | - | - |
* Rain latest hour (hover to see other rain measurements)
** Current wind speed in m/s (hover to see current wind gust speed)